Location: Cypress Hills Dark-Sky Preserve - CHICO
(49.6176°N, 110.2634°W)
Time: 10:06:56
(UTC-06:00)

Amateur Radio Satellites - All Passes

Search period start: 26 July 2016 09:36
Search period end: 27 July 2016 09:36
Location: Cypress Hills Dark-Sky Preserve - CHICO, 49.6176°N, 110.2634°W

Satellite Date Start Highest point End Downlink Frequencies (MHz)
Time Altitude Azimuth
Cubesat XI-IV 26 Jul 09:37:16 09:41:04 20° 304° (NW) 09:44:50 437.490
DOVE 4 26 Jul 09:38:22 09:42:49 32° 295° (WNW) 09:47:23 437.250
GOMX 1 26 Jul 09:40:46 09:44:00 18° 301° (WNW) 09:47:21 467.674
TIGRISAT 26 Jul 09:43:51 09:47:44 27° 63° (ENE) 09:51:39 435.000
Cosmos 2491 26 Jul 09:52:58 10:01:43 79° 264° (W) 10:10:29 435.465 / 435.565
CANX-2 26 Jul 09:57:08 10:01:15 52° 289° (WNW) 10:05:20 2200.000
CINEMA 3 26 Jul 09:57:29 10:02:23 55° 289° (WNW) 10:07:17 145.822/145.860
UNISAT 6 26 Jul 09:59:22 10:03:38 37° 67° (ENE) 10:07:59 437.425
AAUSAT CUBESAT 2 26 Jul 09:59:27 10:03:34 63° 102° (ESE) 10:07:37 437.432
Cosmos 2504 26 Jul 10:01:23 10:07:02 19° 73° (ENE) 10:12:37 435.465 / 435.565
CUTE-I 26 Jul 10:02:10 10:04:45 14° 309° (NW) 10:07:20 437.470
Oscar 11 26 Jul 10:02:31 10:06:21 30° 95° (E) 10:10:07 145.826/435.025
CUTE 1.7 + AOD 2 26 Jul 10:10:51 10:14:52 43° 290° (WNW) 10:18:52 437.475
QB50P1 26 Jul 10:13:09 10:13:47 10° 54° (NE) 10:14:24 145.935-145.965
HO-68 26 Jul 10:18:10 10:25:20 68° 293° (WNW) 10:32:26 435.675
POPSAT HIP 1 26 Jul 10:18:36 10:20:03 12° 55° (NE) 10:21:30 437.405
AUBIESAT-1 26 Jul 10:28:02 10:30:31 14° 93° (E) 10:33:00 437.475
NOAA 18 26 Jul 10:30:59 10:31:42 10° 315° (NW) 10:32:25 137.9125
DELFI C3 26 Jul 10:31:16 10:34:36 25° 94° (E) 10:37:54 145.870
RS-15 26 Jul 10:31:24 10:42:49 52° 331° (NNW) 10:54:48 29.354- 29.394
ANTELSAT 26 Jul 10:37:26 10:42:05 80° 73° (ENE) 10:46:49 437.575/2403.000
QB50P2 26 Jul 10:37:35 10:40:28 18° 60° (ENE) 10:43:22 145.880/145.840
POLYITAN 1 26 Jul 10:40:10 10:43:05 18° 60° (ENE) 10:46:03 437.675
HUMSAT D 26 Jul 10:43:01 10:46:00 18° 91° (E) 10:48:56 437.325/437.525
SO-50 26 Jul 10:43:24 10:48:03 43° 320° (NW) 10:52:40 436.795
UWE-3 26 Jul 10:51:43 10:56:21 65° 287° (WNW) 11:00:52 435.000/436.395/437.385
SEEDS 26 Jul 10:52:24 10:55:48 24° 296° (WNW) 10:59:10 437.485
FUNcube-1 26 Jul 10:54:13 10:58:47 88° 107° (ESE) 11:03:13 145.935
ZACube-1 26 Jul 10:54:35 10:59:10 87° 285° (WNW) 11:03:37 437.345
COMPASS 1 26 Jul 11:06:06 11:09:27 24° 296° (WNW) 11:12:47 437.405
CUBEBUG 2 26 Jul 11:12:00 11:16:15 33° 294° (WNW) 11:20:25 437.445
TIGRISAT 26 Jul 11:19:45 11:24:12 45° 262° (W) 11:28:44 435.000
NANOSAT C BR1 26 Jul 11:22:59 11:26:56 40° 68° (ENE) 11:30:57 145.865
YUBILEINY 26 Jul 11:26:41 11:35:26 66° 285° (WNW) 11:44:16 435.215
DUCHIFAT 1 26 Jul 11:27:43 11:31:42 42° 69° (ENE) 11:35:44 145.980
M-CUBED/EXP-1 PRIME 26 Jul 11:33:50 11:38:30 65° 108° (ESE) 11:43:11 437.505
AAUSAT CUBESAT 2 26 Jul 11:36:01 11:38:36 16° 300° (WNW) 11:41:11 437.432
UNISAT 6 26 Jul 11:36:17 11:40:23 31° 265° (W) 11:44:35 437.425
CINEMA 3 26 Jul 11:37:34 11:38:29 10° 309° (NW) 11:39:23 145.822/145.860
Oscar 11 26 Jul 11:38:36 11:42:29 33° 294° (WNW) 11:46:21 145.826/435.025
QB50P1 26 Jul 11:44:31 11:48:45 69° 72° (ENE) 11:53:01 145.935-145.965
JAS-2 26 Jul 11:45:10 11:50:13 31° 63° (ENE) 11:54:55 435.910
BUGSAT 1 26 Jul 11:46:42 11:50:20 31° 66° (ENE) 11:54:02 437.445
Oscar 19 26 Jul 11:47:08 11:48:21 11° 49° (NE) 11:49:34 437.125/150
Cosmos 2504 26 Jul 11:50:07 11:58:57 75° 95° (E) 12:07:43 435.465 / 435.565
POPSAT HIP 1 26 Jul 11:50:51 11:55:06 78° 74° (ENE) 11:59:25 437.405
Cosmos 2491 26 Jul 11:51:30 11:57:06 19° 286° (WNW) 12:02:43 435.465 / 435.565
AUBIESAT-1 26 Jul 12:00:52 12:05:31 86° 293° (WNW) 12:10:11 437.475
DELFI C3 26 Jul 12:05:58 12:09:31 32° 292° (WNW) 12:13:02 145.870
HO-68 26 Jul 12:07:08 12:11:51 19° 315° (NW) 12:16:33 435.675
AISAT 26 Jul 12:09:04 12:12:02 17° 90° (E) 12:14:59 437.250
50 SAT 26 Jul 12:10:22 12:12:23 14° 90° (E) 12:14:24 437.505
QB50P2 26 Jul 12:11:38 12:15:51 61° 259° (W) 12:20:07 145.880/145.840
DX 1 26 Jul 12:12:53 12:14:56 13° 88° (E) 12:16:58 434.975-435.025
POLYITAN 1 26 Jul 12:14:16 12:18:29 60° 259° (WSW) 12:22:46 437.675
ANTELSAT 26 Jul 12:16:51 12:19:24 14° 273° (W) 12:21:58 437.575/2403.000
HUMSAT D 26 Jul 12:17:50 12:21:56 51° 289° (WNW) 12:25:59 437.325/437.525
SO-50 26 Jul 12:26:36 12:29:43 17° 342° (NNW) 12:32:49 436.795
UKube-1 26 Jul 12:28:02 12:30:29 15° 89° (E) 12:32:54 .
UWE-3 26 Jul 12:30:38 12:31:54 11° 307° (NW) 12:33:09 435.000/436.395/437.385
FUNcube-1 26 Jul 12:31:57 12:34:22 14° 303° (WNW) 12:36:45 145.935
ZACube-1 26 Jul 12:32:28 12:34:44 14° 304° (NW) 12:36:59 437.345
ESTCUBE 1 26 Jul 12:39:09 12:43:33 50° 100° (E) 12:47:55 437.505/2401.250
RS-15 26 Jul 12:47:33 12:58:43 40° 4° (N) 13:10:07 29.354- 29.394
Gurwin Techsat 1B 26 Jul 12:56:53 13:00:39 20° 56° (ENE) 13:04:26 435.225
NANOSAT C BR1 26 Jul 12:59:23 13:02:50 24° 267° (W) 13:06:19 145.865
VELOX 1 26 Jul 12:59:45 13:04:04 48° 100° (E) 13:08:23 145.980
SPROUT 26 Jul 13:02:15 13:05:57 27° 94° (E) 13:09:37 437.525
CUBEBUG 1 26 Jul 13:03:21 13:07:43 61° 101° (E) 13:12:05 437.445
DUCHIFAT 1 26 Jul 13:04:13 13:07:35 23° 267° (W) 13:10:59 145.980
M-CUBED/EXP-1 PRIME 26 Jul 13:09:04 13:12:37 22° 305° (NW) 13:16:12 437.505
AO-7 26 Jul 13:09:36 13:14:32 17° 35° (NE) 13:19:28 29.400- 29.500
ITAMSAT 1 26 Jul 13:18:37 13:20:37 12° 50° (NE) 13:22:36 435.822/435.867
Oscar 19 26 Jul 13:21:37 13:26:37 55° 69° (ENE) 13:31:38 437.125/150
BUGSAT 1 26 Jul 13:22:08 13:25:43 29° 265° (W) 13:29:22 437.445
QB50P1 26 Jul 13:22:41 13:25:01 14° 271° (W) 13:27:22 145.935-145.965
YUBILEINY 26 Jul 13:28:32 13:34:17 19° 310° (NW) 13:40:07 435.215
JAS-2 26 Jul 13:29:28 13:35:14 47° 261° (W) 13:40:28 435.910
POPSAT HIP 1 26 Jul 13:29:33 13:31:27 13° 273° (W) 13:33:22 437.405
AUBIESAT-1 26 Jul 13:36:35 13:39:20 16° 309° (NW) 13:42:07 437.475
AIST 1 26 Jul 13:40:43 13:44:28 31° 91° (E) 13:48:16
50 SAT 26 Jul 13:42:50 13:46:20 49° 289° (WNW) 13:49:48 437.505
AISAT 26 Jul 13:44:30 13:48:55 61° 289° (WNW) 13:53:19 437.250
Cosmos 2504 26 Jul 13:45:25 13:53:11 32° 298° (WNW) 14:00:53 435.465 / 435.565
DX 1 26 Jul 13:47:18 13:51:42 80° 286° (WNW) 13:56:04 434.975-435.025
TISAT 1 26 Jul 14:00:55 14:04:35 27° 95° (E) 14:08:13 437.305
UKube-1 26 Jul 14:02:41 14:07:01 70° 287° (WNW) 14:11:19 .
SO-50 26 Jul 14:09:37 14:12:06 14° 7° (N) 14:14:32 436.795
ESTCUBE 1 26 Jul 14:16:36 14:20:04 22° 298° (WNW) 14:23:32 437.505/2401.250
Gurwin Techsat 1B 26 Jul 14:34:43 14:40:02 79° 256° (WSW) 14:45:24 435.225
VELOX 1 26 Jul 14:36:47 14:40:17 23° 298° (WNW) 14:43:47 145.980
AO-85 26 Jul 14:37:20 14:42:15 38° 119° (ESE) 14:46:58 145.980
SPROUT 26 Jul 14:37:59 14:41:59 37° 293° (WNW) 14:45:57 437.525
CUBEBUG 1 26 Jul 14:40:32 14:43:37 19° 300° (WNW) 14:46:41 437.445
ITAMSAT 1 26 Jul 14:53:56 14:59:05 61° 70° (ENE) 15:04:15 435.822/435.867
Cosmos 2499 26 Jul 14:55:36 15:01:37 21° 75° (ENE) 15:07:31 435.465 / 435.565
AO-7 26 Jul 14:57:30 15:05:29 51° 59° (ENE) 15:13:29 29.400- 29.500
RS-15 26 Jul 15:02:04 15:14:14 60° 36° (NE) 15:26:25 29.354- 29.394
Oscar 19 26 Jul 15:02:12 15:06:17 24° 268° (W) 15:10:23 437.125/150
CUSAT 1 26 Jul 15:12:47 15:15:33 64° 78° (ENE) 15:18:50 437.405
SWISSCUBE 26 Jul 15:13:05 15:17:24 33° 96° (E) 15:21:42 437.505
AIST 1 26 Jul 15:18:23 15:22:04 28° 290° (WNW) 15:25:49
DX 1 26 Jul 15:25:26 15:27:10 12° 305° (NW) 15:28:55 434.975-435.025
DANDE 26 Jul 15:28:41 15:30:52 23° 71° (ENE) 15:33:05 436.750
BEESAT 26 Jul 15:34:23 15:39:01 47° 99° (E) 15:43:36 436.000
GONETS M04 26 Jul 15:34:56 15:43:00 45° 87° (E) 15:51:07
TISAT 1 26 Jul 15:36:23 15:40:18 36° 293° (WNW) 15:44:11 437.305
UKube-1 26 Jul 15:41:16 15:42:16 11° 307° (NW) 15:43:16 .
SO-50 26 Jul 15:50:07 15:54:09 27° 31° (NNE) 15:58:04 436.795
KKS-1 26 Jul 15:55:42 15:56:41 11° 86° (E) 15:57:39 437.445
ITUPSAT 1 26 Jul 15:56:55 16:01:43 73° 103° (ESE) 16:06:28 437.325
AO-85 26 Jul 16:17:37 16:22:44 47° 318° (NW) 16:27:33 145.980
Gurwin Techsat 1B 26 Jul 16:18:39 16:20:53 13° 275° (W) 16:23:07 435.225
HORYU 2 26 Jul 16:20:09 16:23:54 27° 63° (ENE) 16:27:39 437.375
MOZHAYETS 4 26 Jul 16:22:29 16:26:04 22° 92° (E) 16:29:35
CUTE-I 26 Jul 16:32:10 16:33:07 10° 47° (NE) 16:34:05 437.470
ITAMSAT 1 26 Jul 16:34:56 16:38:58 22° 268° (W) 16:43:01 435.822/435.867
STARS 26 Jul 16:35:17 16:37:37 14° 88° (E) 16:39:56 437.465
Cosmos 2499 26 Jul 16:44:36 16:53:30 81° 97° (E) 17:02:08 435.465 / 435.565
AO-7 26 Jul 16:50:22 16:58:21 47° 260° (W) 17:06:24 29.400- 29.500
SWISSCUBE 26 Jul 16:50:53 16:55:13 35° 295° (WNW) 16:59:31 437.505
NOAA 15 26 Jul 16:51:44 16:55:11 18° 55° (NE) 16:58:39 137.62
NOAA 18 26 Jul 16:59:03 17:02:42 18° 53° (NE) 17:06:22 137.9125
BEESAT 26 Jul 17:12:38 17:16:35 26° 298° (WNW) 17:20:30 436.000
DANDE 26 Jul 17:12:51 17:13:23 10° 270° (W) 17:13:55 436.750
RS-15 26 Jul 17:15:04 17:27:03 61° 243° (WSW) 17:38:56 29.354- 29.394
HO-68 26 Jul 17:23:33 17:24:53 11° 34° (NE) 17:26:12 435.675
KKS-1 26 Jul 17:29:27 17:33:58 83° 104° (ESE) 17:38:28 437.445
SO-50 26 Jul 17:30:25 17:35:07 73° 233° (SW) 17:39:37 436.795
GONETS M04 26 Jul 17:31:25 17:39:47 50° 290° (WNW) 17:48:15
ITUPSAT 1 26 Jul 17:35:48 17:39:02 18° 303° (WNW) 17:42:16 437.325
GOMX 1 26 Jul 17:38:07 17:41:01 18° 59° (ENE) 17:44:01 467.674
CUBESAT XI-V 26 Jul 17:40:07 17:43:19 18° 90° (E) 17:46:31 437.345
Cubesat XI-IV 26 Jul 17:43:26 17:48:12 34° 63° (ENE) 17:53:00 437.490
HORYU 2 26 Jul 17:56:01 18:00:17 42° 262° (W) 18:04:34 437.375
MOZHAYETS 4 26 Jul 17:59:03 18:03:30 49° 290° (WNW) 18:07:54
AO-85 26 Jul 18:00:53 18:04:19 18° 340° (NNW) 18:07:36 145.980
CUTE-I 26 Jul 18:06:49 18:11:59 50° 67° (ENE) 18:17:11 437.470
BRITE-PL 26 Jul 18:09:09 18:13:16 69° 73° (ENE) 18:17:28 437.365/2234.400
STARS 26 Jul 18:10:03 18:14:31 76° 288° (WNW) 18:18:57 437.465
LilacSat-2 26 Jul 18:19:31 18:23:17 51° 72° (ENE) 18:27:06 437.200
NOAA 15 26 Jul 18:29:04 18:34:19 87° 251° (WSW) 18:39:37 137.62
NOAA 18 26 Jul 18:37:04 18:42:37 87° 76° (ENE) 18:48:14 137.9125
Cosmos 2499 26 Jul 18:40:06 18:47:35 30° 299° (WNW) 18:54:52 435.465 / 435.565
BEESAT 3 26 Jul 18:45:28 18:47:52 16° 113° (ESE) 18:50:19 437.485
BEESAT 2 26 Jul 18:52:30 18:52:56 10° 109° (ESE) 18:53:20 435.950
HO-68 26 Jul 19:04:12 19:10:35 36° 57° (ENE) 19:17:00 435.675
KKS-1 26 Jul 19:07:22 19:09:57 15° 303° (WNW) 19:12:33 437.445
DOVE 4 26 Jul 19:10:21 19:14:36 62° 72° (ENE) 19:19:10 437.250
PHONESAT 2.4 26 Jul 19:12:27 19:13:59 13° 168° (SSE) 19:15:31 2401.200-2431.200
SO-50 26 Jul 19:13:18 19:14:42 11° 253° (WSW) 19:16:06 436.795
GOMX 1 26 Jul 19:14:35 19:18:42 58° 260° (W) 19:23:03 467.674
CUBESAT XI-V 26 Jul 19:16:33 19:21:07 60° 288° (WNW) 19:25:39 437.345
CANX-2 26 Jul 19:18:53 19:22:18 24° 64° (ENE) 19:25:43 2200.000
AAUSAT CUBESAT 2 26 Jul 19:22:17 19:22:52 10° 55° (NE) 19:23:28 437.432
Cubesat XI-IV 26 Jul 19:23:05 19:28:11 43° 262° (W) 19:33:20 437.490
PCSat 26 Jul 19:25:35 19:29:36 21° 108° (ESE) 19:33:37 145.827
CINEMA 3 26 Jul 19:26:38 19:30:41 32° 65° (ENE) 19:34:55 145.822/145.860
RS-15 26 Jul 19:30:13 19:36:45 16° 267° (W) 19:43:17 29.354- 29.394
CUTE 1.7 + AOD 2 26 Jul 19:32:11 19:35:48 27° 65° (ENE) 19:39:26 437.475
YUBILEINY 26 Jul 19:35:11 19:41:51 23° 54° (NE) 19:48:26 435.215
GONETS M04 26 Jul 19:35:18 19:39:20 14° 317° (NW) 19:43:23
AO-85 26 Jul 19:44:20 19:46:41 13° 4° (N) 19:48:57 145.980
CUTE-I 26 Jul 19:47:42 19:52:17 28° 266° (W) 19:56:54 437.470
STARS 26 Jul 19:48:25 19:50:07 12° 306° (NW) 19:51:50 437.465
BRITE-PL 26 Jul 19:50:24 19:52:21 13° 273° (W) 19:54:19 437.365/2234.400
LilacSat-2 26 Jul 19:55:27 19:57:54 16° 270° (W) 20:00:24 437.200
SEEDS 26 Jul 20:11:53 20:15:56 47° 70° (ENE) 20:20:00 437.485
NOAA 15 26 Jul 20:12:15 20:14:53 14° 273° (W) 20:17:33 137.62
UWE-3 26 Jul 20:17:05 20:20:47 24° 62° (ENE) 20:24:33 435.000/436.395/437.385
FUNcube-1 26 Jul 20:19:13 20:22:11 17° 59° (ENE) 20:25:10 145.935
ZACube-1 26 Jul 20:19:39 20:22:47 18° 59° (ENE) 20:25:55 437.345
NOAA 18 26 Jul 20:20:37 20:24:02 16° 272° (W) 20:27:27 137.9125
BEESAT 3 26 Jul 20:21:10 20:25:05 69° 312° (NW) 20:29:03 437.485
COMPASS 1 26 Jul 20:24:46 20:28:46 46° 70° (ENE) 20:32:47 437.405
BEESAT 2 26 Jul 20:26:04 20:30:02 79° 127° (SE) 20:34:02 435.950
STRAND 1 26 Jul 20:31:33 20:36:35 53° 100° (E) 20:41:34 437.568
CUBEBUG 2 26 Jul 20:37:05 20:41:31 48° 70° (ENE) 20:46:06 437.445
PHONESAT 2.4 26 Jul 20:47:55 20:49:47 15° 185° (S) 20:51:39 2401.200-2431.200
DOVE 4 26 Jul 20:50:05 20:52:51 16° 272° (W) 20:55:44 437.250
HO-68 26 Jul 20:50:56 20:58:01 60° 258° (WSW) 21:05:09 435.675
M-CUBED/EXP-1 PRIME 26 Jul 20:51:16 20:54:15 21° 54° (NE) 20:57:25 437.505
PRISM 26 Jul 20:51:29 20:52:57 12° 88° (E) 20:54:24 437.425
AAUSAT CUBESAT 2 26 Jul 20:53:28 20:57:36 73° 75° (ENE) 21:01:45 437.432
CANX-2 26 Jul 20:53:52 20:57:57 43° 262° (W) 21:02:03 2200.000
Oscar 11 26 Jul 21:01:08 21:05:11 39° 69° (ENE) 21:09:16 145.826/435.025
CINEMA 3 26 Jul 21:03:34 21:07:45 36° 265° (W) 21:12:10 145.822/145.860
Cosmos 2491 26 Jul 21:04:57 21:11:46 27° 79° (ENE) 21:18:35 435.465 / 435.565
PCSat 26 Jul 21:07:01 21:12:27 74° 308° (NW) 21:17:55 145.827
CUTE 1.7 + AOD 2 26 Jul 21:07:36 21:11:32 36° 263° (W) 21:15:31 437.475
AUBIESAT-1 26 Jul 21:17:15 21:20:42 30° 58° (ENE) 21:24:23 437.475
DELFI C3 26 Jul 21:21:14 21:24:39 28° 66° (ENE) 21:28:04 145.870
AO-85 26 Jul 21:25:02 21:28:50 24° 29° (NNE) 21:32:23 145.980
O/OREOS (USA 219) 26 Jul 21:28:42 21:33:01 51° 110° (ESE) 21:37:23 437.305
YUBILEINY 26 Jul 21:31:20 21:40:16 81° 80° (E) 21:49:06 435.215
HUMSAT D 26 Jul 21:38:09 21:41:37 24° 64° (ENE) 21:45:05 437.325/437.525
Cosmos 2504 26 Jul 21:38:23 21:46:00 37° 65° (ENE) 21:53:04 435.465 / 435.565
SEEDS 26 Jul 21:48:46 21:51:54 20° 269° (W) 21:55:02 437.485
UWE-3 26 Jul 21:52:31 21:56:58 49° 261° (W) 22:01:32 435.000/436.395/437.385
FUNcube-1 26 Jul 21:53:21 21:57:53 73° 257° (WSW) 22:02:30 145.935
ZACube-1 26 Jul 21:54:03 21:58:34 68° 259° (WSW) 22:03:11 437.345
BEESAT 3 26 Jul 22:00:53 22:03:28 17° 333° (NNW) 22:06:05 437.485
COMPASS 1 26 Jul 22:01:27 22:04:34 20° 268° (W) 22:07:42 437.405
BEESAT 2 26 Jul 22:05:16 22:08:20 21° 328° (NNW) 22:11:26 435.950
ESTCUBE 1 26 Jul 22:09:13 22:11:02 12° 55° (NE) 22:12:51 437.505/2401.250
STRAND 1 26 Jul 22:11:16 22:15:29 26° 300° (WNW) 22:19:40 437.568
CUBEBUG 2 26 Jul 22:14:40 22:18:24 24° 269° (W) 22:22:12 437.445
AIST 2 26 Jul 22:22:32 22:26:36 67° 126° (SE) 22:30:44 435.215
PRISM 26 Jul 22:24:42 22:28:49 80° 285° (WNW) 22:32:54 437.425
M-CUBED/EXP-1 PRIME 26 Jul 22:24:43 22:28:26 50° 255° (WSW) 22:32:31 437.505
ANTELSAT 26 Jul 22:26:33 22:28:47 13° 86° (E) 22:30:58 437.575/2403.000
VELOX 1 26 Jul 22:28:18 22:29:41 11° 54° (NE) 22:31:03 145.980
CUBEBUG 1 26 Jul 22:30:09 22:32:00 13° 55° (NE) 22:33:51 437.445
AAUSAT CUBESAT 2 26 Jul 22:31:39 22:33:36 13° 272° (W) 22:35:33 437.432
Oscar 11 26 Jul 22:37:51 22:41:28 25° 267° (W) 22:45:06 145.826/435.025
ISS 26 Jul 22:38:46 22:41:39 29° 146° (SE) 22:44:33 145.825
HO-68 26 Jul 22:44:49 22:47:17 12° 279° (W) 22:49:46 435.675
AUBIESAT-1 26 Jul 22:51:35 22:55:06 32° 259° (WSW) 22:58:53 437.475
50 SAT 26 Jul 22:52:27 22:54:29 14° 61° (ENE) 22:56:31 437.505
PCSat 26 Jul 22:52:37 22:56:47 22° 330° (NNW) 23:00:57 145.827
DELFI C3 26 Jul 22:55:55 22:59:28 30° 264° (W) 23:03:01 145.870
Cosmos 2491 26 Jul 22:58:57 23:07:40 80° 281° (W) 23:16:27 435.465 / 435.565
AO-85 26 Jul 23:05:19 23:09:53 81° 234° (SW) 23:14:02 145.980
TIGRISAT 26 Jul 23:07:01 23:11:07 29° 94° (E) 23:15:07 435.000
O/OREOS (USA 219) 26 Jul 23:09:00 23:12:42 25° 311° (NW) 23:16:25 437.305
AISAT 26 Jul 23:10:20 23:14:00 26° 63° (ENE) 23:17:40 437.250
DX 1 26 Jul 23:12:04 23:15:17 21° 61° (ENE) 23:18:31 434.975-435.025
HUMSAT D 26 Jul 23:12:55 23:17:02 43° 262° (W) 23:21:10 437.325/437.525
UNISAT 6 26 Jul 23:23:02 23:27:30 43° 97° (E) 23:31:52 437.425
UKube-1 26 Jul 23:26:20 23:29:42 23° 62° (ENE) 23:33:04 .
YUBILEINY 26 Jul 23:29:10 23:36:06 27° 282° (WNW) 23:43:02 435.215
Cosmos 2504 26 Jul 23:31:46 23:39:52 59° 269° (W) 23:47:21 435.465 / 435.565
ESTCUBE 1 26 Jul 23:42:37 23:47:06 78° 74° (ENE) 23:51:37 437.505/2401.250
AIST 1 26 Jul 23:43:39 23:46:04 14° 63° (ENE) 23:48:28
QB50P2 26 Jul 23:53:08 23:55:56 17° 90° (E) 23:58:42 145.880/145.840
POLYITAN 1 26 Jul 23:55:45 23:58:35 17° 90° (E) 00:01:24 437.675
SPROUT 26 Jul 23:59:45 00:03:39 35° 67° (ENE) 00:07:35 437.525
VELOX 1 27 Jul 00:01:00 00:05:22 73° 72° (ENE) 00:09:47 145.980
ANTELSAT 27 Jul 00:01:27 00:06:09 85° 286° (WNW) 00:10:44 437.575/2403.000
AIST 2 27 Jul 00:02:04 00:05:28 24° 326° (NNW) 00:08:55 435.215
PRISM 27 Jul 00:02:16 00:03:26 11° 305° (NW) 00:04:35 437.425
CUBEBUG 1 27 Jul 00:03:17 00:07:36 85° 73° (ENE) 00:11:57 437.445
ISS 27 Jul 00:14:38 00:17:54 79° 345° (NNW) 00:21:10 145.825
50 SAT 27 Jul 00:24:06 00:27:43 58° 259° (W) 00:31:20 437.505
JAS-2 27 Jul 00:34:01 00:37:10 16° 89° (E) 00:40:24 435.910
NANOSAT C BR1 27 Jul 00:38:25 00:42:28 40° 98° (E) 00:46:30 145.865
PCSat 27 Jul 00:40:04 00:42:19 12° 356° (N) 00:44:34 145.827
DUCHIFAT 1 27 Jul 00:42:52 00:46:57 42° 98° (E) 00:50:59 145.980
TIGRISAT 27 Jul 00:43:33 00:47:53 38° 293° (WNW) 00:52:07 435.000
AISAT 27 Jul 00:46:12 00:50:19 40° 262° (W) 00:54:29 437.250
DX 1 27 Jul 00:46:56 00:51:09 52° 259° (W) 00:55:25 434.975-435.025
AO-85 27 Jul 00:48:07 00:49:26 11° 253° (WSW) 00:50:44 145.980
SWISSCUBE 27 Jul 00:49:55 00:51:18 11° 51° (NE) 00:52:42 437.505
TISAT 1 27 Jul 00:56:30 01:00:20 35° 67° (ENE) 01:04:13 437.305
BUGSAT 1 27 Jul 00:59:02 01:02:47 29° 95° (E) 01:06:32 437.445
Cosmos 2491 27 Jul 00:59:42 01:06:08 22° 306° (NW) 01:12:36 435.465 / 435.565
UNISAT 6 27 Jul 01:00:07 01:04:02 27° 297° (WNW) 01:07:52 437.425
QB50P1 27 Jul 01:00:30 01:04:49 71° 103° (ESE) 01:09:05 145.935-145.965
UKube-1 27 Jul 01:01:21 01:05:29 46° 260° (W) 01:09:40 .
POPSAT HIP 1 27 Jul 01:06:55 01:11:15 80° 103° (ESE) 01:15:33 437.405
BEESAT 27 Jul 01:09:50 01:12:30 15° 55° (NE) 01:15:10 436.000
AIST 1 27 Jul 01:19:52 01:24:12 74° 263° (W) 01:28:33
BEESAT 3 27 Jul 01:20:13 01:22:11 13° 21° (NNE) 01:24:09 437.485
ESTCUBE 1 27 Jul 01:22:12 01:24:29 14° 272° (W) 01:26:47 437.505/2401.250
BEESAT 2 27 Jul 01:25:53 01:27:17 11° 16° (NNE) 01:28:42 435.950
QB50P2 27 Jul 01:27:52 01:32:08 60° 288° (WNW) 01:36:21 145.880/145.840
Cosmos 2504 27 Jul 01:28:14 01:31:14 12° 292° (WNW) 01:34:10 435.465 / 435.565
Oscar 19 27 Jul 01:30:10 01:32:47 14° 86° (E) 01:35:24 437.125/150
POLYITAN 1 27 Jul 01:30:31 01:34:47 59° 288° (WNW) 01:38:59 437.675
ITUPSAT 1 27 Jul 01:31:33 01:35:11 22° 59° (ENE) 01:38:49 437.325
SPROUT 27 Jul 01:35:59 01:39:40 28° 265° (W) 01:43:23 437.525
GONETS M04 27 Jul 01:39:05 01:46:35 30° 60° (ENE) 01:54:04
ANTELSAT 27 Jul 01:39:45 01:42:08 14° 305° (NW) 01:44:29 437.575/2403.000
VELOX 1 27 Jul 01:40:00 01:42:22 14° 272° (W) 01:44:45 145.980
CUBEBUG 1 27 Jul 01:42:56 01:44:31 12° 273° (W) 01:46:06 437.445
AIST 2 27 Jul 01:44:20 01:45:24 11° 350° (N) 01:46:28 435.215
ISS 27 Jul 01:51:16 01:54:31 59° 5° (N) 01:57:45 145.825
NANOSAT C BR1 27 Jul 02:14:31 02:18:02 25° 296° (WNW) 02:21:32 145.865
JAS-2 27 Jul 02:17:41 02:22:56 82° 287° (WNW) 02:28:32 435.910
DUCHIFAT 1 27 Jul 02:18:58 02:22:26 24° 297° (WNW) 02:25:53 145.980
SWISSCUBE 27 Jul 02:23:28 02:28:12 63° 71° (ENE) 02:32:57 437.505
PCSat 27 Jul 02:24:29 02:28:03 17° 23° (NNE) 02:31:35 145.827
Cosmos 2499 27 Jul 02:31:37 02:39:02 38° 66° (ENE) 02:45:53 435.465 / 435.565
TISAT 1 27 Jul 02:32:29 02:36:04 27° 266° (W) 02:39:41 437.305
BUGSAT 1 27 Jul 02:34:21 02:38:11 33° 294° (WNW) 02:42:00 437.445
QB50P1 27 Jul 02:37:27 02:40:06 16° 301° (WNW) 02:42:44 145.935-145.965
POPSAT HIP 1 27 Jul 02:44:05 02:46:27 15° 303° (WNW) 02:48:49 437.405
BEESAT 27 Jul 02:44:48 02:49:36 87° 72° (ENE) 02:54:26 436.000
Gurwin Techsat 1B 27 Jul 02:46:45 02:51:25 30° 94° (E) 02:56:04 435.225
KKS-1 27 Jul 02:56:46 02:59:49 19° 59° (ENE) 03:02:54 437.445
BEESAT 3 27 Jul 02:57:02 03:00:51 43° 43° (NE) 03:04:39 437.485
BEESAT 2 27 Jul 03:02:41 03:06:19 32° 39° (NE) 03:09:56 435.950
ITAMSAT 1 27 Jul 03:03:42 03:06:39 15° 87° (E) 03:09:34 435.822/435.867
Oscar 19 27 Jul 03:07:40 03:12:52 87° 104° (ESE) 03:18:05 437.125/150
ITUPSAT 1 27 Jul 03:07:53 03:12:38 60° 258° (WSW) 03:17:25 437.325
AIST 2 27 Jul 03:24:08 03:25:43 12° 15° (NNE) 03:27:20 435.215
ISS 27 Jul 03:27:46 03:31:00 61° 205° (SSW) 03:34:13 145.825
MOZHAYETS 4 27 Jul 03:28:12 03:32:23 35° 66° (ENE) 03:36:35
GONETS M04 27 Jul 03:35:36 03:44:24 78° 264° (W) 03:53:13
STARS 27 Jul 03:35:36 03:39:01 22° 61° (ENE) 03:42:26 437.465
SWISSCUBE 27 Jul 04:03:02 04:06:25 19° 270° (W) 04:09:49 437.505
JAS-2 27 Jul 04:04:28 04:07:22 15° 306° (NW) 04:10:19 435.910
PCSat 27 Jul 04:07:29 04:12:46 49° 47° (NE) 04:18:01 145.827
CUSAT 1 27 Jul 04:20:43 04:24:28 47° 100° (E) 04:27:28 437.405
Cosmos 2499 27 Jul 04:24:47 04:32:29 53° 270° (W) 04:39:35 435.465 / 435.565
BEESAT 27 Jul 04:25:44 04:28:04 13° 273° (W) 04:30:25 436.000
Gurwin Techsat 1B 27 Jul 04:26:28 04:31:33 46° 293° (WNW) 04:36:36 435.225
KKS-1 27 Jul 04:31:33 04:35:57 64° 258° (WSW) 04:40:25 437.445
BEESAT 3 27 Jul 04:35:01 04:38:23 26° 242° (WSW) 04:41:42 437.485
BEESAT 2 27 Jul 04:40:28 04:44:14 40° 239° (WSW) 04:47:59 435.950
DANDE 27 Jul 04:40:46 04:45:33 35° 97° (E) 04:49:16 436.750
ITAMSAT 1 27 Jul 04:41:36 04:46:51 87° 282° (WNW) 04:52:02 435.822/435.867
AO-7 27 Jul 04:46:22 04:54:25 48° 100° (E) 05:02:23 29.400- 29.500
CUBESAT XI-V 27 Jul 04:47:19 04:51:19 29° 65° (ENE) 04:55:17 437.345
Oscar 19 27 Jul 04:48:13 04:51:33 18° 305° (NW) 04:54:53 437.125/150
AIST 2 27 Jul 05:01:46 05:05:29 30° 38° (NE) 05:09:13 435.215
ISS 27 Jul 05:05:11 05:06:55 14° 223° (SW) 05:08:39 145.825
MOZHAYETS 4 27 Jul 05:05:24 05:09:33 32° 265° (W) 05:13:44
STARS 27 Jul 05:10:49 05:15:05 50° 260° (W) 05:19:24 437.465
GONETS M04 27 Jul 05:34:08 05:39:45 19° 287° (WNW) 05:45:26
RS-15 27 Jul 05:37:41 05:43:53 16° 93° (E) 05:50:12 29.354- 29.394
HORYU 2 27 Jul 05:42:36 05:46:25 27° 94° (E) 05:50:12 437.375
PCSat 27 Jul 05:51:09 05:56:02 35° 247° (WSW) 06:00:53 145.827
O/OREOS (USA 219) 27 Jul 05:55:08 05:59:11 31° 52° (NE) 06:03:14 437.305
CUSAT 1 27 Jul 06:05:19 06:06:32 11° 292° (WNW) 06:07:41 437.405
BRITE-PL 27 Jul 06:09:07 06:12:20 17° 90° (E) 06:15:40 437.365/2234.400
STRAND 1 27 Jul 06:14:27 06:18:12 21° 57° (ENE) 06:21:58 437.568
CUTE-I 27 Jul 06:20:57 06:23:36 14° 86° (E) 06:26:14 437.470
ITAMSAT 1 27 Jul 06:22:24 06:25:35 17° 306° (NW) 06:28:47 435.822/435.867
Cosmos 2499 27 Jul 06:22:27 06:23:28 10° 294° (WNW) 06:24:29 435.465 / 435.565
DANDE 27 Jul 06:24:02 06:28:19 27° 288° (WNW) 06:31:42 436.750
CUBESAT XI-V 27 Jul 06:24:18 06:28:35 38° 263° (W) 06:32:55 437.345
AO-7 27 Jul 06:39:18 06:47:16 50° 302° (WNW) 06:55:11 29.400- 29.500
AIST 2 27 Jul 06:40:08 06:44:09 46° 238° (WSW) 06:48:09 435.215
NOAA 15 27 Jul 06:40:10 06:44:31 25° 93° (E) 06:48:49 137.62
NOAA 18 27 Jul 06:55:09 06:59:47 26° 93° (E) 07:04:21 137.9125
DOVE 4 27 Jul 07:05:19 07:08:19 15° 87° (E) 07:11:22 437.250
Cosmos 2491 27 Jul 07:07:58 07:13:41 18° 50° (NE) 07:19:25 435.465 / 435.565
GOMX 1 27 Jul 07:10:56 07:15:24 32° 95° (E) 07:20:05 467.674
HORYU 2 27 Jul 07:18:54 07:23:05 39° 293° (WNW) 07:27:15 437.375
LilacSat-2 27 Jul 07:22:48 07:26:31 42° 98° (E) 07:30:11 437.200
O/OREOS (USA 219) 27 Jul 07:34:28 07:38:41 38° 252° (WSW) 07:42:54 437.305
Cubesat XI-IV 27 Jul 07:35:26 07:40:43 55° 101° (E) 07:45:56 437.490
RS-15 27 Jul 07:42:17 07:53:31 62° 117° (ESE) 08:05:21 29.354- 29.394
PRISM 27 Jul 07:44:37 07:47:13 17° 60° (ENE) 07:49:49 437.425
BRITE-PL 27 Jul 07:46:31 07:51:13 70° 286° (WNW) 07:56:18 437.365/2234.400
SO-50 27 Jul 07:50:49 07:53:10 13° 109° (ESE) 07:55:30 436.795
STRAND 1 27 Jul 07:51:44 07:56:53 72° 257° (WSW) 08:02:03 437.568
CUTE-I 27 Jul 07:59:05 08:04:29 84° 105° (ESE) 08:09:49 437.470
HO-68 27 Jul 08:14:23 08:19:53 23° 89° (E) 08:25:20 435.675
NOAA 15 27 Jul 08:19:29 08:24:36 54° 292° (WNW) 08:29:43 137.62
AO-7 27 Jul 08:33:19 08:38:11 17° 325° (NW) 08:43:02 29.400- 29.500
CANX-2 27 Jul 08:34:43 08:38:11 24° 93° (E) 08:41:36 2200.000
NOAA 18 27 Jul 08:35:21 08:40:48 56° 292° (WNW) 08:46:11 137.9125
DOVE 4 27 Jul 08:41:29 08:46:37 87° 283° (WNW) 08:51:54 437.250
YUBILEINY 27 Jul 08:44:46 08:50:28 20° 73° (ENE) 08:56:12 435.215
CUTE 1.7 + AOD 2 27 Jul 08:48:00 08:51:41 28° 94° (E) 08:55:19 437.475
GOMX 1 27 Jul 08:48:54 08:53:33 42° 292° (WNW) 08:58:28 467.674
UNISAT 6 27 Jul 08:53:06 08:54:20 11° 52° (NE) 08:55:35 437.425
CINEMA 3 27 Jul 08:53:07 08:57:56 44° 97° (E) 09:02:42 145.822/145.860
LilacSat-2 27 Jul 08:57:41 09:00:34 20° 297° (WNW) 09:03:26 437.200
Cosmos 2491 27 Jul 09:03:49 09:12:33 67° 76° (ENE) 09:21:17 435.465 / 435.565
Cubesat XI-IV 27 Jul 09:16:02 09:20:30 27° 300° (WNW) 09:24:56 437.490
PRISM 27 Jul 09:18:05 09:22:07 61° 258° (WSW) 09:26:10 437.425
SEEDS 27 Jul 09:26:50 09:30:55 50° 99° (E) 09:34:58 437.485
BRITE-PL 27 Jul 09:27:14 09:29:00 12° 304° (NW) 09:30:49 437.365/2234.400
ANTELSAT 27 Jul 09:28:51 09:32:21 21° 60° (ENE) 09:35:53 437.575/2403.000
